• In Germany
  • List of Countries
  • For 7 days
  • Water Temperature
  • Satellite Maps
  • Weather Map
  • Weather Widgets
  • user-avatar
    Login

    Hourly Weather Lubango

    Today, 23 November, Thursday

    Time Temperature Precipitation Wind Pressure Humidity
    00:00 +16°C° 0 mm 1 mps 608 mmHg 55%
    01:00 +16°C° 0 mm 1 mps 608 mmHg 56%
    02:00 +16°C° 0 mm 1 mps 607 mmHg 56%
    03:00 +16°C° 0 mm 1 mps 607 mmHg 56%
    04:00 +15°C° 0 mm 1 mps 607 mmHg 55%
    05:00 +18°C° 0 mm 1 mps 608 mmHg 51%
    06:00 +17°C° 0 mm 0 mps 609 mmHg 46%
    07:00 +19°C° 0 mm 0 mps 610 mmHg 41%
    08:00 +23°C° 0 mm 1 mps 610 mmHg 35%
    09:00 +26°C° 0 mm 1 mps 611 mmHg 29%
    10:00 +28°C° 0 mm 2 mps 612 mmHg 22%
    11:00 +29°C° 0 mm 2 mps 612 mmHg 22%
    12:00 +30°C° 0 mm 2 mps 612 mmHg 21%
    13:00 +31°C° 0 mm 2 mps 611 mmHg 20%
    14:00 +29°C° 0 mm 2 mps 611 mmHg 23%
    15:00 +28°C° 0 mm 3 mps 610 mmHg 26%
    16:00 +27°C° 0 mm 3 mps 609 mmHg 28%
    17:00 +25°C° 0 mm 2 mps 609 mmHg 33%
    18:00 +23°C° 0 mm 2 mps 609 mmHg 38%
    19:00 +20°C° 0 mm 2 mps 608 mmHg 43%
    20:00 +20°C° 0 mm 1 mps 608 mmHg 47%
    21:00 +19°C° 0 mm 1 mps 609 mmHg 51%
    22:00 +18°C° 0 mm 1 mps 609 mmHg 54%
    23:00 +18°C° 0 mm 1 mps 608 mmHg 56%

    Tomorrow, 24 November, Friday

    Time Temperature Precipitation Wind Pressure Humidity
    00:00 +16°C° 0 mm 1 mps 608 mmHg 57%
    01:00 +15°C° 0 mm 0 mps 608 mmHg 59%
    02:00 +14°C° 0 mm 0 mps 608 mmHg 60%
    03:00 +15°C° 0 mm 1 mps 607 mmHg 61%
    04:00 +15°C° 0 mm 1 mps 607 mmHg 61%
    05:00 +16°C° 0 mm 1 mps 608 mmHg 57%
    06:00 +18°C° 0 mm 1 mps 609 mmHg 53%
    07:00 +20°C° 0 mm 1 mps 610 mmHg 49%
    08:00 +22°C° 0 mm 1 mps 611 mmHg 41%
    09:00 +25°C° 0 mm 1 mps 612 mmHg 34%
    10:00 +27°C° 0 mm 1 mps 613 mmHg 27%
    11:00 +28°C° 0 mm 1 mps 612 mmHg 27%
    12:00 +29°C° 0 mm 2 mps 612 mmHg 26%
    13:00 +29°C° 0 mm 2 mps 612 mmHg 25%
    14:00 +28°C° 0 mm 2 mps 611 mmHg 29%
    15:00 +26°C° 0 mm 2 mps 610 mmHg 33%
    16:00 +25°C° 0 mm 3 mps 609 mmHg 37%
    17:00 +24°C° 0 mm 3 mps 609 mmHg 43%
    18:00 +21°C° 0 mm 2 mps 609 mmHg 48%
    19:00 +20°C° 0 mm 2 mps 609 mmHg 54%
    20:00 +19°C° 0 mm 2 mps 609 mmHg 58%
    21:00 +19°C° 0 mm 1 mps 609 mmHg 63%
    22:00 +18°C° 0 mm 1 mps 610 mmHg 67%
    23:00 +18°C° 0 mm 1 mps 609 mmHg 68%

    Day after tomorrow, 25 November, Saturday

    Time Temperature Precipitation Wind Pressure Humidity
    00:00 +18°C° 0 mm 1 mps 609 mmHg 70%
    01:00 +16°C° 0 mm 1 mps 608 mmHg 72%
    02:00 +16°C° 0 mm 1 mps 608 mmHg 72%
    03:00 +15°C° 0 mm 0 mps 608 mmHg 72%
    04:00 +15°C° 0 mm 0 mps 608 mmHg 73%
    05:00 +16°C° 0 mm 0 mps 609 mmHg 69%
    06:00 +16°C° 0 mm 0 mps 609 mmHg 65%
    07:00 +17°C° 0 mm 0 mps 610 mmHg 62%
    08:00 +22°C° 0 mm 1 mps 611 mmHg 52%
    09:00 +24°C° 0 mm 1 mps 612 mmHg 43%
    10:00 +27°C° 0 mm 2 mps 613 mmHg 34%
    11:00 +27°C° 0 mm 2 mps 612 mmHg 32%
    12:00 +28°C° 0 mm 3 mps 611 mmHg 31%
    13:00 +28°C° 0 mm 3 mps 611 mmHg 30%
    14:00 +27°C° 0 mm 3 mps 610 mmHg 33%
    15:00 +26°C° 0 mm 4 mps 609 mmHg 35%
    16:00 +26°C° 0 mm 4 mps 609 mmHg 38%
    17:00 +23°C° 0 mm 4 mps 609 mmHg 45%
    18:00 +21°C° 0 mm 3 mps 609 mmHg 53%
    19:00 +19°C° 0 mm 3 mps 609 mmHg 60%
    20:00 +18°C° 0 mm 2 mps 609 mmHg 64%
    21:00 +17°C° 0 mm 2 mps 609 mmHg 69%
    22:00 +16°C° 0 mm 1 mps 609 mmHg 73%
    23:00 +15°C° 0 mm 1 mps 609 mmHg 75%

    26 November, Sunday

    Time Temperature Precipitation Wind Pressure Humidity
    00:00 +15°C° 0 mm 1 mps 608 mmHg 77%
    01:00 +15°C° 0 mm 1 mps 608 mmHg 79%
    02:00 +14°C° 0 mm 1 mps 608 mmHg 80%
    03:00 +14°C° 0 mm 1 mps 607 mmHg 82%
    04:00 +14°C° 0 mm 1 mps 607 mmHg 83%
    05:00 +15°C° 0 mm 1 mps 608 mmHg 77%
    06:00 +15°C° 0 mm 1 mps 609 mmHg 72%
    07:00 +16°C° 0 mm 1 mps 610 mmHg 67%
    08:00 +20°C° 0 mm 1 mps 611 mmHg 56%
    09:00 +22°C° 0 mm 1 mps 611 mmHg 45%
    10:00 +25°C° 0 mm 2 mps 612 mmHg 34%
    11:00 +26°C° 0 mm 2 mps 612 mmHg 31%
    12:00 +28°C° 0 mm 2 mps 612 mmHg 28%
    13:00 +29°C° 0 mm 3 mps 612 mmHg 26%
    14:00 +28°C° 0 mm 3 mps 611 mmHg 29%
    15:00 +27°C° 0 mm 4 mps 611 mmHg 33%
    16:00 +26°C° 0 mm 4 mps 610 mmHg 37%
    17:00 +22°C° 0 mm 4 mps 610 mmHg 49%
    18:00 +20°C° 0 mm 4 mps 610 mmHg 61%
    19:00 +18°C° 0 mm 3 mps 609 mmHg 73%
    20:00 +17°C° 0 mm 3 mps 610 mmHg 76%
    21:00 +16°C° 0 mm 3 mps 610 mmHg 79%
    22:00 +16°C° 0 mm 3 mps 610 mmHg 82%
    23:00 +14°C° 0 mm 3 mps 610 mmHg 82%

    27 November, Monday

    Time Temperature Precipitation Wind Pressure Humidity
    00:00 +15°C° 0 mm 2 mps 609 mmHg 83%
    01:00 +14°C° 0 mm 2 mps 609 mmHg 83%
    02:00 +14°C° 0 mm 2 mps 609 mmHg 84%
    03:00 +14°C° 0 mm 1 mps 609 mmHg 85%
    04:00 +13°C° 0 mm 1 mps 608 mmHg 86%
    05:00 +14°C° 0 mm 1 mps 609 mmHg 81%
    06:00 +15°C° 0 mm 1 mps 610 mmHg 75%
    07:00 +16°C° 0 mm 1 mps 610 mmHg 70%
    08:00 +19°C° 0 mm 1 mps 611 mmHg 59%
    09:00 +21°C° 0 mm 2 mps 612 mmHg 48%
    10:00 +25°C° 0 mm 2 mps 613 mmHg 37%
    11:00 +26°C° 0 mm 2 mps 613 mmHg 34%
    12:00 +28°C° 0 mm 2 mps 613 mmHg 30%
    13:00 +29°C° 0 mm 3 mps 612 mmHg 27%
    14:00 +28°C° 0 mm 3 mps 611 mmHg 32%
    15:00 +26°C° 0 mm 4 mps 610 mmHg 36%
    16:00 +25°C° 0 mm 4 mps 610 mmHg 41%
    17:00 +22°C° 0 mm 4 mps 610 mmHg 49%
    18:00 +20°C° 0 mm 3 mps 610 mmHg 57%
    19:00 +18°C° 0 mm 3 mps 610 mmHg 65%
    20:00 +17°C° 0 mm 2 mps 610 mmHg 71%
    21:00 +16°C° 0 mm 2 mps 610 mmHg 76%
    22:00 +15°C° 0 mm 1 mps 610 mmHg 82%
    23:00 +15°C° 0 mm 1 mps 609 mmHg 84%

    28 November, Tuesday

    Time Temperature Precipitation Wind Pressure Humidity
    00:00 +15°C° 0 mm 1 mps 609 mmHg 86%
    01:00 +14°C° 0 mm 1 mps 608 mmHg 88%
    02:00 +14°C° 0 mm 1 mps 608 mmHg 89%
    03:00 +14°C° 0 mm 1 mps 608 mmHg 90%
    04:00 +13°C° 0 mm 1 mps 608 mmHg 90%
    05:00 +15°C° 0 mm 1 mps 608 mmHg 84%
    06:00 +16°C° 0 mm 1 mps 609 mmHg 78%
    07:00 +18°C° 0 mm 1 mps 610 mmHg 72%
    08:00 +20°C° 0 mm 1 mps 611 mmHg 62%
    09:00 +22°C° 0 mm 1 mps 611 mmHg 52%
    10:00 +24°C° 0 mm 1 mps 612 mmHg 43%
    11:00 +26°C° 0 mm 1 mps 612 mmHg 39%
    12:00 +27°C° 0 mm 1 mps 612 mmHg 35%
    13:00 +29°C° 0 mm 2 mps 612 mmHg 32%
    14:00 +28°C° 0.2 mm 2 mps 611 mmHg 34%
    15:00 +27°C° 0.2 mm 3 mps 610 mmHg 37%
    16:00 +26°C° 0.2 mm 3 mps 610 mmHg 39%
    17:00 +24°C° 0.3 mm 3 mps 609 mmHg 46%
    18:00 +21°C° 0.3 mm 3 mps 609 mmHg 54%
    19:00 +19°C° 0.3 mm 2 mps 609 mmHg 61%
    20:00 +18°C° 0.1 mm 2 mps 609 mmHg 65%
    21:00 +18°C° 0.1 mm 2 mps 609 mmHg 69%
    22:00 +17°C° 0.1 mm 2 mps 609 mmHg 73%
    23:00 +16°C° 0 mm 1 mps 609 mmHg 76%
    Show more